Location: Chantarel
(45.1638°N, 1.7873°E)
Time: 20:57:14
(UTC+00:00)

Cosmos 2278 Rocket - Pass Details

Date: 03 March 2021
Orbit: 841 x 845 km, 71.0° (Epoch: 13 April)

Event Time Altitude Azimuth Distance (km) Brightness Sun altitude
Rises 20:23:59 0° 336° (NNW) 3,414 6.0 -28.7°
Reaches altitude 10° 20:26:28 10° 339° (NNW) 2,475 5.1 -29.1°
Enters shadow 20:30:45 49° 4° (N) 1,076 2.7 -29.8°
